Weather History for KGFK - August, 2013

Change the Weather History Date:

Tuesday, August 20, 2013

  Actual Average Record
Temperature  
Mean Temperature 82 °F 67 °F  
Max Temperature 97 °F 80 °F 100 °F (1976)
Min Temperature 66 °F 54 °F 32 °F (2004)
Degree Days  
Heating Degree Days 0 2  
Month to date heating degree days 52 24  
Since 1 June heating degree days 158 155  
Since 1 July heating degree days 81 52  
Cooling Degree Days 17 4  
Month to date cooling degree days 53 91  
Year to date cooling degree days 341 324  
Since 1 June cooling degree days 332 307  
Growing Degree Days 32 (Base 50)    
Moisture  
Dew Point 66 °F    
Average Humidity 66    
Maximum Humidity 100    
Minimum Humidity 31    
Precipitation  
Precipitation 0.06 in 0.09 in 0.78 in (1980)
Month to date precipitation 0.23 1.85  
Year to date precipitation 13.58 14.20  
Snow  
Snow 0.00 in 0.00 in - ()
Month to date snowfall 0.0 0.0  
Since 1 June snowfall 0.0 0.0  
Since 1 July snowfall 0.0 0.0  
Snow Depth 0.00 in    
Sea Level Pressure  
Sea Level Pressure 29.67 in    
Wind  
Wind Speed 9 mph (SSW)    
Max Wind Speed 21 mph    
Max Gust Speed 28 mph    
Visibility 9 miles    
Events Rain    
T = Trace of Precipitation, MM = Missing Value Source: NWS Daily Summary

Daily Weather History Graph

Daily Weather History Graph

Search for Another Location

Airport or City:

Trip Planner

Search our weather history database for the weather conditions in past years. The results will help you decide how hot, cold, wet, or windy it might be!

Date:

Astronomy

Aug. 20, 2013 Rise Set
Actual Time 6:30 AM CDT 8:32 PM CDT
Civil Twilight 5:57 AM CDT 9:05 PM CDT
Nautical Twilight 5:15 AM CDT 9:46 PM CDT
Astronomical Twilight 4:29 AM CDT 10:32 PM CDT
Moon 7:59 PM CDT (8/20) 6:04 AM CDT (8/20)
Length of Visible Light 15h 08m
Length of Day
14h 01m
Full, 100% of the Moon is Illuminated
Aug 20
Full
Aug 20
Full
Aug 28
Last Quarter
Sep 5
New
Sep 12
First Quarter

Hourly Weather History & Observations

Time (CDT) Temp. Heat Index Dew Point Humidity Pressure Visibility Wind Dir Wind Speed Gust Speed Precip Events Conditions
12:53 AM 75.9 °F - 70.0 °F 82% 29.70 in 10.0 mi South 12.7 mph - N/A   Partly Cloudy
1:53 AM 73.9 °F - 70.0 °F 87% 29.70 in 10.0 mi South 9.2 mph - N/A   Partly Cloudy
2:53 AM 72.0 °F - 69.1 °F 91% 29.70 in 8.0 mi South 6.9 mph - N/A   Clear
3:53 AM 70.0 °F - 69.1 °F 97% 29.69 in 6.0 mi South 8.1 mph - N/A   Clear
4:53 AM 69.1 °F - 68.0 °F 96% 29.69 in 5.0 mi South 6.9 mph - N/A   Clear
5:53 AM 68.0 °F - 66.9 °F 96% 29.69 in 6.0 mi South 6.9 mph - N/A   Clear
6:53 AM 68.0 °F - 66.9 °F 96% 29.70 in 4.0 mi South 4.6 mph - N/A   Partly Cloudy
7:53 AM 70.0 °F - 68.0 °F 93% 29.71 in 5.0 mi South 8.1 mph - N/A   Clear
8:53 AM 73.9 °F - 69.1 °F 85% 29.72 in 9.0 mi SW 5.8 mph - N/A   Clear
9:53 AM 78.1 °F - 68.0 °F 71% 29.71 in 10.0 mi SSW 3.5 mph - N/A   Clear
10:53 AM 82.0 °F 84.5 °F 66.9 °F 60% 29.71 in 10.0 mi SSE 4.6 mph - N/A   Clear
11:53 AM 86.0 °F 88.8 °F 66.9 °F 53% 29.70 in 10.0 mi South 5.8 mph - N/A   Clear
12:53 PM 90.0 °F 92.8 °F 66.9 °F 46% 29.70 in 10.0 mi Variable 5.8 mph - N/A   Clear
1:53 PM 93.0 °F 93.8 °F 62.1 °F 36% 29.68 in 10.0 mi SSW 5.8 mph - N/A   Clear
2:53 PM 95.0 °F 95.2 °F 61.0 °F 32% 29.65 in 10.0 mi South 12.7 mph - N/A   Clear
3:53 PM 96.1 °F 97.3 °F 63.0 °F 33% 29.63 in 10.0 mi South 13.8 mph - N/A   Clear
4:53 PM 96.1 °F 96.9 °F 62.1 °F 32% 29.62 in 10.0 mi SSW 16.1 mph 23.0 mph N/A   Clear
5:53 PM 96.1 °F 97.3 °F 63.0 °F 33% 29.61 in 10.0 mi SSW 15.0 mph 24.2 mph N/A   Clear
6:53 PM 93.9 °F 97.5 °F 66.9 °F 41% 29.59 in 10.0 mi South 15.0 mph 23.0 mph N/A   Clear
7:53 PM 90.0 °F 91.7 °F 64.9 °F 43% 29.59 in 10.0 mi South 13.8 mph - N/A   Partly Cloudy
8:53 PM 84.9 °F 86.6 °F 64.9 °F 51% 29.63 in 10.0 mi WSW 10.4 mph - N/A   Partly Cloudy
9:53 PM 81.0 °F 82.7 °F 64.9 °F 58% 29.65 in 10.0 mi WSW 6.9 mph - N/A   Partly Cloudy
10:53 PM 80.1 °F 81.2 °F 62.1 °F 54% 29.65 in 10.0 mi WSW 4.6 mph - N/A   Mostly Cloudy
11:36 PM 71.6 °F - 62.6 °F 73% 29.72 in 10.0 mi NNW 15.0 mph - 0.02 in Rain Light Rain
11:53 PM 70.0 °F - 62.1 °F 76% 29.72 in 10.0 mi NNW 17.3 mph 20.7 mph 0.03 in Rain Light Rain